Probability
0 0 0 0 0 0 0 0 0 0 0 0 0 0 0 0 0 0 0 0 0 0 0 0 0 0 0 0 0 0 0 0 0 0 0 0 0 0 0 0 0 0 0 0
0 0 0 0 0 0 0 0 0 0 0 0 0 0 0 0 0 0 0 0 0 0 0 0 0 0 0 0 0 0 0 0 0 0 0 0 0 0 0 0 0 0 0 0
0 0 0 0 0 0 0 0 0 0 0 0 0 0 0 0 0 0 0 0 0 0 0 0 0 0 0 0 0 0 0 0 0 0 0 0 0 0 0 0 0 0 0 0
0 0 0 0 0 0 0 0 0 0 0 0 0 0 0 0 0 0 0 0 0 0 0 0 0 0 0 0 0 0 0 0 0 0 0 0 0 0 0 0 0 0 0 0
0 0 0 0 0 0 0 0 0 0 0 0 0 0 0 0 0 0 0 0 0 0 0 0 0 0 0 0 0 0 0 0 0 0 0 0 0 0 0 0 0 0 0 0
0 0 0 0 0 0 0 0 0 0 0 0 0 0 0 0 0 0 0 0 0 0 0 0 0 0 0 0 0 0 0 0 0 0 0 0 0 0 0 0 0 0 0 0
0 0 0 0 0 0 0 0 0 0 0 0 0 0 0 0 0 0 0 0 0 0 0 0 0 0 0 0 0 0 0 0 0 0 0 0 0 0 0 0 0 0 0 0
0 0 0 0 0 0 0 0 0 0 0 0 0 0 0 0 0 0 0 0 0 0 0 0 0 0 0 0 0 0 0 0 0 0 0 0 0 0 0 0 0 0 0 0
0 0 0 0 0 0 0 0 0 0 0 0 0 0 0 0 0 0 0 0 0 0 0 0 0 0 0 0 0 0 0 0 0 0 0 0 0 0 0 0 0 0 0 0
0 0 0 0 0 0 0 0 0 0 0 0 0 0 0 0 0 0 0 0 0 0 0 0 0 0 0 0 0 0 0 0 0 0 0 0 0 0 0 0 0 0 0 0
0 0 0 0 0 0 0 0 0 0 0 0 0 0 0 0 0 0 0 0 0 0 0 0 0 0 0 0 0 0 0 0 0 0 0 0 0 0 0 0 0 0 0 0
0 0 0 0 0 0 0 0 0 0 0 0 0 0 0 0 0 0 0 0 0 0 0 0 0 0 0 0 0 0 0 0 0 0 0 0 0 0 0 0 0 0 0 0
0 0 0 0 0 0 0 0 0 0 0 0 0 0 0 0 0 0 0 0 0 0 0 0 0 0 0 0 0 0 0 0 0 0 0 0 0 0 0 0 0 0 0 0
0 0 0 0 0 0 0 0 0 0 0 0 0 0 0 0 0 0 0 0 0 0 0 0 0 0 0 0 0 0 0 0 0 0 0 0 0 0 0 0 0 0 0 0
0 0 0 0 0 0 0 0 0 0 0 0 0 0 0 0 0 0 0 0 0 0 0 0 0 0 0 0 0 0 0 0 0 0 0 0 0 0 0 0 0 0 0 0
0 0 0 0 0 0 0 0 0 0 0 0 0 0 0 0 0 0 0 0 0 0 0 0 0 0 0 0 0 0 0 0 0 0 0 0 0 0 0 0 0 0 0 0
0 0 0 0 0 0 0 0 0 0 0 0 0 0 0 0 0 0 0 0 0 0 0 0 0 0 0 0 0 0 0 0 0 0 0 0 0 0 0 0 0 0 0 0
0 0 0 0 0 0 0 0 0 0 0 0 0 0 0 0 0 0 0 0 0 0 0 0 0 0 0 0 0 0 0 0 0 0 0 0 0 0 0 0 0 0 0 0
0 0 0 0 0 0 0 0 0 0 0 0 0 0 0 0 0 0 0 0 0 0 0 0 0 0 0 0 0 0 0 0 0 0 0 0 0 0 0 0 0 0 0 0
0 0 0 0 0 0 0 0 0 0 0 0 0 0 0 0 0 0 0 0 0 0 0 0 0 0 0 0 0 0 0 0 0 0 0 0 0 0 0 0 0 0 0 0
0 0 0 0 0 0 0 0 0 0 0 0 0 0 0 0 0 0 0 0 0 0 0 0 0 0 0 0 0 0 0 0 0 0 0 0 0 0 0 0 0 0 0 0
0 0 0 0 0 0 0 0 0 0 0 0 0 0 0 0 0 0 0 0 0 0 0 0 0 0 0 0 0 0 0 0 0 0 0 0 0 0 0 0 0 0 0 0
0 0 0 0 0 0 0 0 0 0 0 0 0 0 0 0 0 0 0 0 0 0 0 0 0 0 0 0 0 0 0 0 0 0 0 0 0 0 0 0 0 0 0 0
0 0 0 0 0 0 0 0 0 0 0 0 0 0 0 0 0 0 0 0 0 0 0 0 0 0 0 0 0 0 0 0 0 0 0 0 0 0 0 0 0 0 0 0
0 0 0 0 0 0 0 0 0 0 0 0 0 0 0 0 0 0 0 0 0 0 0 0 0 0 0 0 0 0 0 0 0 0 0 0 0 0 0 0 0 0 0 0
0 0 0 0 0 0 0 0 0 0 0 0 0 0 0 0 0 0 0 0 0 0 0 0 0 0 0 0 0 0 0 0 0 0 0 0 0 0 0 0 0 0 0 0
Height
5897 5896 5894 5891 5889 5887 5884 5882 5879 5876 5873 5870 5866 5863 5859 5855 5851 5846 5841 5836 5830 5824 5817 5810 5802 5794 5785 5775 5765 5754 5742 5730 5716 5702 5686 5670 5651 5631 5611 5590 5570 5552 5535 5519
5897 5895 5893 5890 5888 5885 5883 5880 5877 5875 5871 5868 5864 5861 5857 5852 5848 5843 5837 5832 5825 5818 5811 5804 5795 5786 5777 5767 5756 5745 5732 5719 5705 5690 5674 5656 5637 5617 5595 5574 5554 5536 5520 5503
5896 5895 5891 5889 5886 5884 5881 5879 5876 5873 5870 5866 5863 5859 5855 5850 5845 5840 5834 5827 5820 5813 5805 5797 5788 5778 5769 5758 5747 5735 5722 5709 5694 5678 5661 5642 5622 5600 5580 5560 5541 5523 5506 5488
5895 5893 5890 5888 5885 5883 5880 5878 5874 5871 5868 5865 5862 5858 5852 5847 5842 5836 5830 5823 5815 5807 5799 5790 5781 5771 5761 5750 5738 5726 5712 5698 5683 5667 5649 5630 5609 5588 5568 5548 5529 5511 5493 5475
5894 5892 5890 5887 5885 5882 5880 5876 5873 5870 5866 5863 5859 5855 5851 5845 5839 5833 5826 5818 5810 5802 5793 5783 5774 5764 5753 5741 5729 5716 5702 5688 5672 5655 5637 5617 5596 5576 5556 5537 5519 5501 5482 5464
5893 5891 5889 5887 5884 5882 5879 5876 5873 5870 5866 5862 5858 5853 5848 5842 5836 5829 5822 5814 5805 5796 5787 5777 5767 5756 5745 5733 5720 5707 5692 5677 5661 5644 5625 5605 5584 5564 5545 5527 5509 5492 5473 5455
5891 5890 5888 5886 5884 5882 5879 5877 5874 5869 5865 5861 5856 5851 5847 5840 5833 5826 5818 5810 5800 5791 5781 5771 5760 5749 5737 5725 5712 5698 5683 5667 5650 5633 5614 5594 5574 5554 5536 5519 5501 5483 5466 5448
5890 5889 5887 5885 5883 5881 5878 5875 5872 5868 5863 5860 5854 5848 5844 5837 5829 5822 5814 5805 5796 5786 5775 5765 5753 5741 5729 5717 5703 5689 5674 5658 5641 5623 5604 5585 5565 5546 5528 5510 5493 5475 5458 5440
5888 5887 5886 5883 5881 5879 5876 5873 5870 5866 5861 5857 5852 5847 5840 5833 5826 5818 5810 5801 5791 5781 5770 5759 5747 5734 5722 5709 5695 5681 5665 5649 5632 5615 5596 5576 5557 5539 5521 5503 5486 5468 5451 5434
5885 5885 5883 5881 5879 5877 5875 5871 5868 5863 5858 5853 5849 5843 5837 5829 5823 5815 5806 5797 5787 5776 5765 5753 5740 5728 5715 5702 5688 5673 5658 5642 5625 5607 5589 5570 5551 5532 5515 5498 5480 5462 5445 5428
5882 5882 5881 5879 5877 5874 5872 5868 5864 5859 5854 5849 5844 5841 5834 5827 5819 5811 5802 5793 5782 5771 5760 5747 5735 5721 5708 5695 5681 5666 5651 5635 5618 5601 5582 5563 5545 5527 5510 5493 5475 5458 5442 5425
5879 5879 5877 5876 5874 5871 5868 5865 5861 5858 5853 5847 5841 5839 5830 5823 5815 5807 5798 5789 5778 5767 5755 5742 5729 5716 5702 5689 5675 5660 5645 5629 5612 5594 5577 5558 5540 5523 5506 5489 5472 5455 5439 5422
5875 5875 5874 5872 5872 5868 5864 5861 5857 5854 5849 5844 5839 5837 5826 5819 5811 5803 5794 5785 5774 5763 5751 5738 5725 5711 5697 5683 5669 5654 5639 5623 5606 5589 5572 5554 5537 5519 5502 5486 5470 5453 5437 5421
5870 5870 5870 5869 5866 5863 5860 5857 5853 5849 5845 5841 5836 5831 5824 5816 5808 5800 5790 5780 5770 5759 5746 5733 5720 5706 5692 5678 5663 5649 5634 5618 5602 5585 5568 5551 5533 5516 5500 5484 5468 5452 5436 5420
5865 5865 5863 5862 5860 5858 5856 5853 5849 5845 5840 5836 5832 5825 5819 5812 5803 5795 5786 5776 5765 5754 5742 5729 5716 5702 5687 5673 5659 5644 5629 5613 5597 5581 5564 5547 5531 5514 5498 5482 5467 5451 5435 5420
5859 5859 5858 5857 5854 5852 5851 5847 5844 5840 5835 5831 5826 5821 5814 5807 5799 5790 5782 5772 5761 5750 5738 5725 5712 5698 5683 5669 5654 5640 5625 5609 5594 5578 5562 5545 5528 5512 5496 5481 5466 5451 5436 5420
5852 5852 5851 5851 5848 5846 5845 5843 5839 5835 5831 5826 5821 5816 5809 5802 5794 5786 5777 5767 5757 5746 5734 5721 5708 5694 5680 5665 5650 5636 5621 5606 5591 5575 5559 5543 5526 5511 5495 5481 5466 5452 5437 5422
5846 5844 5843 5843 5842 5840 5842 5836 5833 5829 5826 5820 5815 5809 5803 5797 5789 5780 5772 5762 5752 5741 5730 5717 5704 5691 5677 5661 5647 5632 5618 5603 5588 5573 5557 5541 5525 5509 5494 5480 5466 5452 5438 5424
5838 5837 5835 5835 5833 5833 5833 5829 5825 5822 5820 5814 5809 5804 5798 5791 5784 5776 5767 5757 5747 5737 5725 5713 5700 5687 5673 5658 5643 5629 5615 5600 5586 5571 5555 5540 5524 5509 5495 5481 5467 5453 5439 5425
5829 5828 5828 5826 5824 5825 5827 5822 5816 5815 5812 5808 5802 5797 5791 5783 5777 5770 5760 5751 5742 5731 5721 5709 5697 5684 5670 5655 5641 5626 5612 5598 5584 5569 5554 5539 5524 5510 5495 5482 5468 5453 5439 5426
5821 5819 5819 5817 5815 5816 5817 5812 5808 5806 5804 5799 5793 5788 5783 5776 5769 5762 5753 5745 5736 5726 5715 5704 5692 5680 5667 5653 5638 5624 5610 5596 5583 5568 5554 5539 5525 5510 5496 5482 5469 5455 5441 5427
5810 5810 5809 5808 5807 5810 5806 5803 5799 5796 5793 5789 5784 5780 5775 5769 5762 5755 5747 5738 5730 5720 5710 5700 5688 5676 5663 5650 5636 5621 5608 5594 5581 5568 5554 5540 5525 5511 5497 5483 5470 5456 5443 5430
5800 5800 5798 5799 5802 5800 5797 5793 5788 5785 5783 5780 5775 5772 5767 5761 5754 5747 5740 5732 5724 5715 5705 5695 5684 5673 5660 5647 5633 5619 5605 5592 5579 5566 5553 5540 5526 5512 5498 5485 5472 5459 5446 5433
5788 5788 5787 5788 5792 5790 5786 5782 5778 5775 5772 5769 5766 5762 5757 5752 5746 5740 5732 5725 5717 5709 5700 5690 5680 5669 5657 5644 5631 5617 5603 5590 5577 5565 5552 5539 5525 5512 5498 5486 5473 5461 5449 5437
5776 5776 5777 5777 5781 5778 5776 5772 5768 5764 5761 5758 5755 5751 5747 5742 5737 5731 5724 5717 5710 5702 5694 5685 5675 5664 5653 5641 5628 5614 5601 5588 5576 5563 5551 5538 5525 5511 5498 5486 5474 5462 5450 5438
5764 5766 5766 5766 5768 5764 5764 5762 5757 5753 5750 5747 5744 5740 5736 5732 5728 5722 5716 5709 5702 5695 5687 5679 5669 5659 5649 5637 5625 5612 5599 5586 5574 5562 5550 5537 5524 5511 5497 5484 5472 5461 5451 5439
Wind_Speed
10 10 10 11 11 12 12 13 15 16 18 19 20 23 24 25 27 28 30 31 34 36 39 41 43 45 48 51 54 58 62 66 68 71 75 79 83 87 89 88 85 81 79 77
9 9 9 10 11 12 13 14 15 16 18 19 20 22 24 25 26 28 29 31 34 37 39 42 44 47 49 52 56 60 64 67 69 72 76 80 83 86 87 84 81 78 77 76
7 7 7 8 10 12 13 14 15 16 17 19 20 21 23 24 26 27 29 32 35 38 40 43 45 48 50 53 57 61 64 67 69 73 77 80 84 86 84 80 77 76 75 75
5 5 6 7 9 11 12 14 15 17 18 19 20 21 24 25 27 29 31 33 36 39 41 43 46 49 52 54 58 61 65 67 70 73 77 81 83 83 81 77 75 74 74 73
3 3 4 6 8 10 12 14 15 17 18 19 21 23 25 27 29 31 33 36 38 40 42 44 47 50 52 55 58 62 65 68 71 74 77 81 82 81 78 75 73 73 72 72
2 2 3 5 7 9 11 13 14 17 19 20 22 24 27 29 31 34 37 39 41 42 44 46 48 51 53 56 59 63 66 68 71 74 78 80 81 79 75 73 72 71 70 70
3 1 1 3 5 7 9 12 14 17 19 21 23 26 28 31 33 37 40 43 44 46 46 48 49 52 54 57 60 63 66 68 71 75 78 80 79 77 73 71 70 70 68 68
5 3 1 2 4 6 8 11 14 17 19 20 24 27 30 32 36 39 42 45 48 49 50 50 51 53 55 58 61 64 66 69 71 75 77 79 78 75 72 70 69 69 68 68
7 5 3 1 3 6 8 11 14 16 18 21 25 27 31 34 38 41 44 47 50 53 53 53 54 55 57 59 62 65 67 69 71 74 77 78 76 73 71 69 69 68 67 67
9 7 5 4 4 6 8 11 14 17 21 23 26 29 32 35 38 42 45 49 52 55 57 57 57 57 58 60 62 65 67 69 71 74 76 77 75 72 69 68 67 67 66 66
11 9 8 6 6 8 10 12 15 18 22 26 28 31 33 35 39 42 46 50 53 57 59 61 60 60 60 61 63 65 67 68 71 74 76 76 74 71 68 67 66 66 65 65
14 12 10 9 9 10 11 14 16 19 22 24 27 31 34 36 40 43 46 50 54 58 61 63 63 62 61 62 63 65 67 68 71 73 75 75 73 70 68 66 65 65 64 65
16 14 13 12 12 12 13 15 18 20 22 25 27 30 34 36 39 43 46 50 54 58 62 64 66 65 63 63 64 66 67 68 70 73 74 74 72 69 67 65 64 64 63 64
19 17 16 16 15 15 15 17 19 22 24 26 28 30 33 37 40 43 46 50 54 58 62 65 67 68 66 64 65 66 67 68 70 72 74 73 72 69 66 64 63 63 63 63
21 20 19 18 18 17 17 19 20 23 26 28 30 32 35 37 40 44 47 51 54 58 62 65 68 70 68 66 65 66 67 68 69 71 73 73 71 68 66 64 63 62 62 62
23 23 22 21 21 20 19 21 22 24 27 29 31 33 36 38 41 44 47 51 54 58 61 65 68 71 70 67 66 66 67 67 69 70 72 72 70 68 66 64 62 61 61 61
26 26 25 24 24 25 22 23 24 25 28 31 32 35 37 39 41 45 47 51 55 58 61 65 68 71 71 69 67 66 67 67 68 70 71 71 70 68 65 63 61 61 61 60
28 29 29 28 27 27 25 26 27 28 29 32 33 36 39 41 42 45 48 51 55 58 61 64 68 70 72 71 68 67 67 67 67 69 70 71 70 67 65 63 61 60 60 60
31 31 32 31 31 30 28 29 31 31 30 32 35 37 39 42 44 45 48 51 54 57 61 64 67 70 72 72 69 67 67 66 67 68 69 70 69 67 64 62 60 59 58 59
34 35 35 34 34 33 30 32 34 35 33 34 37 39 41 44 47 48 49 51 54 57 60 63 66 69 71 72 70 67 66 66 66 67 68 69 68 66 63 61 60 58 57 58
37 38 38 37 37 35 33 35 37 37 38 38 39 41 42 45 48 49 50 52 54 57 60 62 65 68 70 72 71 68 66 65 65 66 67 68 68 65 63 61 59 57 56 56
40 41 40 40 39 36 35 37 39 40 40 41 42 43 44 45 47 49 50 52 54 57 59 61 64 66 69 71 71 68 66 65 64 64 66 67 67 66 63 60 58 57 55 54
42 42 44 43 40 37 37 40 42 44 43 43 44 45 45 46 48 49 50 52 53 56 58 60 62 65 67 69 71 69 66 65 63 63 64 66 67 66 63 60 58 56 54 52
44 44 46 45 40 36 38 41 44 46 46 46 47 47 47 47 48 50 50 51 53 55 58 59 61 63 66 68 69 69 67 64 63 62 63 64 66 66 64 60 57 54 53 51
47 46 45 45 38 35 37 40 43 45 47 47 48 48 48 49 49 50 50 51 52 55 57 58 59 61 64 66 68 68 67 64 62 61 61 63 64 65 64 61 57 54 52 51
50 46 45 42 36 37 38 37 39 43 46 47 48 48 48 49 49 50 51 51 52 55 57 58 58 59 61 64 66 67 67 64 61 60 60 61 62 63 63 61 58 55 52 51
Wind_Direction
340 345 347 350 353 355 355 354 352 348 344 340 335 333 336 334 331 330 329 327 325 324 323 322 321 321 322 322 322 323 324 324 325 325 325 325 324 322 321 321 321 321 321 321
340 343 348 353 357 359 359 357 355 351 348 346 343 340 341 340 338 335 333 330 327 324 323 323 323 323 324 324 324 325 325 326 327 327 327 327 326 324 324 324 324 324 324 324
334 345 354 2 5 4 4 3 1 360 359 357 354 350 350 348 345 341 337 333 328 326 325 325 325 325 326 326 326 327 327 328 329 329 329 328 328 327 327 327 327 327 328 327
328 348 5 13 14 13 11 12 11 8 8 8 5 3 360 357 353 348 343 338 334 331 330 329 328 328 328 328 328 328 329 330 330 331 331 331 330 330 330 330 330 331 331 331
314 351 16 25 26 24 22 22 20 17 15 12 11 9 7 4 360 355 350 345 341 337 334 332 331 330 330 330 330 331 331 332 332 333 333 333 333 332 332 333 333 334 334 334
281 348 27 37 39 37 34 30 26 24 22 19 16 14 12 8 4 0 357 352 347 342 339 336 334 333 333 333 333 333 334 334 334 335 335 335 335 335 335 336 336 337 337 338
249 273 29 40 43 44 39 34 30 28 25 23 17 16 14 9 6 4 1 357 353 348 344 340 338 337 336 335 335 335 336 336 336 337 337 337 337 337 337 338 339 340 341 341
241 243 272 26 33 32 31 29 28 28 24 20 18 16 13 10 7 5 2 359 356 353 348 344 341 340 339 338 337 337 337 338 338 338 339 339 339 339 339 340 342 343 343 344
239 239 243 301 1 13 15 18 20 19 17 14 14 11 9 8 7 4 1 359 358 355 352 348 345 343 341 340 339 339 339 340 340 340 341 341 341 341 342 343 344 345 346 347
240 243 250 277 318 344 357 2 4 6 7 8 7 6 5 4 2 2 0 359 357 356 354 351 348 345 343 342 341 341 341 341 342 342 343 343 343 343 344 345 347 347 348 349
243 247 255 273 300 324 339 347 353 357 358 358 360 358 359 358 358 358 358 357 356 356 355 353 350 347 345 343 343 343 342 343 343 344 344 345 345 345 346 347 349 349 350 352
245 250 258 271 289 307 322 334 342 347 351 352 353 350 353 354 354 355 355 355 355 355 354 354 352 349 346 345 344 344 344 344 345 346 346 346 346 347 348 349 351 352 352 354
248 253 260 270 283 298 312 323 332 338 343 345 347 348 347 350 351 352 352 353 353 353 354 353 353 350 348 346 345 345 345 345 346 347 348 348 348 348 349 351 353 354 354 356
250 255 262 270 281 293 304 314 323 330 335 339 341 343 345 347 349 350 350 351 351 352 352 353 353 351 349 347 346 346 346 347 347 348 349 349 349 350 351 352 354 355 356 357
252 257 263 270 277 286 297 306 316 323 328 333 336 339 342 345 346 348 349 349 349 350 351 352 352 352 350 348 347 347 347 348 348 349 350 350 350 351 352 353 355 356 358 359
255 259 265 271 277 282 291 300 308 315 321 326 331 334 338 342 344 346 347 348 348 349 350 351 351 352 350 348 347 347 348 348 349 350 351 351 352 352 353 354 355 357 359 0
258 262 267 271 276 281 289 295 300 308 315 320 326 330 334 339 341 343 345 347 347 348 348 350 350 351 351 349 348 347 348 349 349 350 351 352 353 353 354 355 356 358 360 1
260 264 269 273 275 279 286 290 296 302 310 315 320 325 330 334 338 340 343 345 346 346 347 348 349 350 351 350 348 348 348 349 350 351 352 353 353 354 354 355 356 358 360 2
261 265 270 274 276 280 283 288 293 298 305 310 316 320 325 329 333 337 340 343 344 345 345 347 348 349 350 350 349 348 348 349 350 351 352 353 354 354 355 355 356 358 360 2
261 264 268 273 276 281 285 287 291 295 301 305 311 316 321 325 328 334 337 340 342 343 344 345 346 347 349 350 349 348 348 349 350 351 352 353 354 355 355 356 357 358 360 2
259 262 266 270 275 281 286 289 291 294 299 304 308 313 317 321 324 329 333 337 339 341 342 343 345 346 347 349 349 348 348 349 350 351 352 353 354 355 356 356 357 359 360 2
261 262 264 267 272 279 283 285 288 291 295 300 304 308 312 316 320 324 329 333 336 338 340 341 343 344 346 348 348 348 347 348 349 350 352 353 354 355 356 356 357 359 1 2
262 264 265 267 272 277 280 283 286 289 292 296 300 304 308 312 315 320 325 329 332 335 338 339 341 343 344 346 348 348 347 347 348 350 351 352 354 355 356 357 358 359 1 2
263 264 266 269 272 276 278 280 283 286 289 292 296 300 303 307 311 316 320 325 328 332 335 337 339 341 342 344 346 347 347 347 347 349 350 351 353 354 355 357 358 359 0 2
264 266 268 271 275 275 273 277 281 284 286 289 292 296 299 303 308 312 316 320 325 328 332 334 336 338 341 342 345 346 346 346 347 348 349 351 352 353 354 356 357 358 360 2
264 268 271 274 276 274 272 274 276 279 282 286 289 292 296 300 304 308 312 316 320 324 329 331 333 336 339 340 343 345 346 345 346 347 349 350 351 353 354 355 356 357 359 1